Location: Unspecified
(0.0000°N, 0.0000°E)
Time: 10:33:47
(UTC+00:00)

XW-2F - Visible Passes

Search period start: 23 June 2018 00:00
Search period end: 03 July 2018 00:00
Orbit: 505 x 527 km, 97.5° (Epoch: 22 June)

Date Brightness Start Highest point End Pass type
(mag) Time Alt. Az. Time Alt. Az. Time Alt. Az.
25 Jun ? 05:36:05 10° NNE 05:39:52 62° ESE 05:43:38 10° S visible
26 Jun ? 05:21:44 10° NE 05:25:13 35° ESE 05:28:44 10° SSE visible
27 Jun ? 05:07:42 10° NE 05:10:35 21° ESE 05:13:30 10° SSE visible
27 Jun ? 18:35:06 10° SW 18:37:07 14° WSW 18:39:08 10° WNW visible
28 Jun ? 04:54:19 10° ENE 04:55:58 12° ESE 04:57:37 10° SE visible
02 Jul ? 05:27:33 10° NNE 05:31:12 44° E 05:34:50 10° S visible
